SL-8 R/B

Satellite information

Favourite Embed

Satellite Type and Status

ROCKET BODYIN ORBIT

Key statistics

Satellite SL-8 R/B at a glance.

Uptime

17966

Days in orbit

Revolutions

≈ 14.4

Per day

Orbit

LEO

Low Earth Orbit

Inclination

74.1

Latest

Satellite identification and parameters

Extended collection of information and parameters for SL-8 R/B.

Object identification

Identified? True

Debris? False

Object name: SL-8 R/B

International designator: 1976-061B

Object number (NORAD): 8924

Object ID (CCSDS): 8924

Country: COMMONWEALTH OF INDEPENDENT STATES (CIS)

Current information (Y/N): Y

RCS size: LARGE

Orbital parameters

Period: 100.108 minutes

Inclination: 74.06 deg

SMA: 7141.784 km

Apoapsis: 774.142 km

Periapsis: 753.156 km

RAAN: 346.6526 deg

Eccentricy: 0.00146926

Argument of periapsis: 223.6248 deg

Mean anomaly: 253.6185 deg

Mean motion: 14.38443162 rev/day

Mean motion (dot): 0.00000439 rev/day2

B* drag term: 0.00015230473 1/REarth

Two-line elements (TLE)

Creation date: Sept. 6, 2025, 2:09 a.m.

Reference frame: TEME

Reference center: EARTH

Epoch: Sept. 5, 2025, 6:07 p.m. UTC

TLE line 0: 0 SL-8 R/B

TLE line 1: 1 08924U 76061B 25248.75533028 .00000439 00000-0 15230-3 0 9997

TLE line 2: 2 08924 74.0600 346.6526 0014693 223.6248 253.6185 14.38443162574927

Live tracking on map

Real-time ground track for satellite SL-8 R/B.

In-orbit conjunctions

A list of the most updated potential collisions computed for object SL-8 R/B.

Target Orbit TCA Probability of collision Miss distance Type
COSMOS 1275 DEB LEO 2025-07-10 18:52:32 0.0005103321 661.0 (m) DEBRIS
DMSP 5D-2 F11 DEB SSO 2025-04-27 03:58:29 0.0003470785 573.0 (m) DEBRIS
FENGYUN 1C DEB SSO 2025-03-12 09:54:40 0.002270112 52.0 (m) DEBRIS
NOAA 16 DEB SSO 2024-09-24 16:16:54 0.0002467574 270.0 (m) DEBRIS
NOAA 17 DEB SSO 2024-08-24 22:16:17 0.0001853194 562.0 (m) DEBRIS

Associated space launch

Military communications satellite

SL-8 R/B was lifted into orbit during the mission ‘Kosmos-3M | Strela-2M 12’, on board a Kosmos-3M space rocket.

The launch took place on June 29, 1976, 8:12 a.m. from 132/2.

For more information about the launch, click the button.

Launch to space Kosmos-3M | Strela-2M 12
Kosmos-3M | Strela-2M 12

Agency: N/A

Status: Launch Successful

Launch date: June 29, 1976, 8:12 a.m. UTC

Rocket: Kosmos-3M

Launch pad: 132/2

Location: Plesetsk Cosmodrome, Russian Federation

...

Latest news about this satellite

There are no fresh news available about this satellite. Check back as we update our databases every day.


Newsletter sign-up

Weekly statistics, charts and insights to help you stay on top of the space industry.